Zurück zum Katalog

FENGYUN 1C DEB

AktivSSO
NORAD 36206·DEBRIS·🇨🇳 China

Gestartet May 10, 1999 von Taiyuan Satellite Launch Center

Loading…

Nächste Überflüge (nächste 24 Stunden)

TLE

AktuellSource: Space-Track

Epoche: Sep 12, 2026, 18:25 UTC

1 36206U 99025DUF 26255.76797174  .00000734  00000-0  34824-3 0  9998
2 36206  98.4629 273.0513 0028738 301.2030  58.6333 14.22230746683157

Verfolge FENGYUN 1C DEB in Echtzeit mit AllMySat

Download on the App Store